This is the latest recevied weather packets stored in our database for station/object CE3SUR-17. If no packets are shown the sender has not sent any weather packets the latest 1 day(s).
| Time | Temp. | Humidity | Pressure | Rain* | Wind** | Luminosity | Snow |
|---|---|---|---|---|---|---|---|
| 1778104388 | 21.67° C | 50% | 960.9 hPa | - | - | - | - |
| 1778095386 | 22.22° C | 47% | 960 hPa | - | - | - | - |
| 1778089988 | 21.67° C | 46% | 960.3 hPa | - | - | - | - |
| 1778080987 | 22.22° C | 45% | 958.6 hPa | - | - | - | - |
| 1778075586 | 20.56° C | 45% | 958.9 hPa | - | - | - | - |
| 1778073785 | 20° C | 45% | 959 hPa | - | - | - | - |
| 1778071985 | 18.33° C | 45% | 959.3 hPa | - | - | - | - |
| 1778068386 | 17.78° C | 46% | 959.2 hPa | - | - | - | - |
| 1778061185 | 18.33° C | 45% | 957.8 hPa | - | - | - | - |
| 1778059385 | 18.89° C | 45% | 957.3 hPa | - | - | - | - |
| 1778057585 | 18.89° C | 45% | 956.9 hPa | - | - | - | - |
| 1778052184 | 19.44° C | 44% | 956.7 hPa | - | - | - | - |
| 1778048587 | 20° C | 44% | 957.1 hPa | - | - | - | - |
| 1778046787 | 20.56° C | 44% | 957.3 hPa | - | - | - | - |
| 1778044986 | 20.56° C | 44% | 957.4 hPa | - | - | - | - |
| 1778039585 | 21.11° C | 43% | 957.9 hPa | - | - | - | - |
| 1778037785 | 21.67° C | 43% | 957.9 hPa | - | - | - | - |
| 1778035985 | 21.67° C | 43% | 957.8 hPa | - | - | - | - |
| 1778034184 | 21.67° C | 43% | 957.8 hPa | - | - | - | - |
| 1778030584 | 22.22° C | 43% | 958 hPa | - | - | - | - |
* Rain since midnight (hover to see other rain measurements)
** Current wind speed in m/s (hover to see current wind gust speed)